Location: Waco, TX
(31.5480°N, 97.1670°W)
Time: 05:04:16
(UTC-05:00)

ISS - Pass Details

Date: 23 May 2018
Orbit: 402 x 407 km, 51.6° (Epoch: 26 May)

Event Time Altitude Azimuth Distance (km) Brightness Sun altitude
Rises 21:12:22 0° 247° (WSW) 2,308 0.5 -10.0°
Reaches altitude 10° 21:14:38 10° 260° (W) 1,451 -0.3 -10.4°
Maximum altitude 21:17:28 27° 321° (NW) 813 -1.4 -10.9°
Drops below altitude 10° 21:20:18 10° 21° (NNE) 1,455 -0.9 -11.4°
Sets 21:22:35 0° 34° (NE) 2,315 0.0 -11.8°
